TimeEDT,TemperatureF,Dew PointF,Humidity,Sea Level PressureIn,VisibilityMPH,Wind Direction,Wind SpeedMPH,Gust SpeedMPH,PrecipitationIn,Events,Conditions,WindDirDegrees,DateUTC
12:15 AM,77.0,71.6,83,30.03,10.0,Calm,Calm,-,N/A,,Clear,0,2013-09-04 04:15:00
12:35 AM,77.0,71.6,83,30.03,10.0,Calm,Calm,-,N/A,,Scattered Clouds,0,2013-09-04 04:35:00
12:55 AM,77.0,71.6,83,30.03,10.0,Calm,Calm,-,N/A,,Clear,0,2013-09-04 04:55:00
1:15 AM,77.0,71.6,83,30.03,10.0,Calm,Calm,-,N/A,,Mostly Cloudy,0,2013-09-04 05:15:00
1:35 AM,77.0,71.6,83,30.02,10.0,Calm,Calm,-,N/A,,Mostly Cloudy,0,2013-09-04 05:35:00
1:55 AM,77.0,71.6,83,30.02,10.0,Calm,Calm,-,N/A,,Clear,0,2013-09-04 05:55:00
2:15 AM,75.2,71.6,89,30.01,10.0,Calm,Calm,-,N/A,,Clear,0,2013-09-04 06:15:00
2:35 AM,75.2,71.6,89,30.00,10.0,Calm,Calm,-,N/A,,Clear,0,2013-09-04 06:35:00
2:55 AM,75.2,71.6,89,30.00,10.0,Calm,Calm,-,N/A,,Clear,0,2013-09-04 06:55:00
3:15 AM,75.2,73.4,94,30.00,10.0,Calm,Calm,-,N/A,,Clear,0,2013-09-04 07:15:00
3:35 AM,75.2,71.6,89,30.00,10.0,Calm,Calm,-,N/A,,Clear,0,2013-09-04 07:35:00
3:55 AM,75.2,71.6,89,30.00,10.0,Calm,Calm,-,N/A,,Clear,0,2013-09-04 07:55:00
4:15 AM,75.2,71.6,89,30.00,10.0,Calm,Calm,-,N/A,,Clear,0,2013-09-04 08:15:00
4:35 AM,75.2,71.6,89,30.00,10.0,Calm,Calm,-,N/A,,Clear,0,2013-09-04 08:35:00
4:55 AM,73.4,71.6,94,30.00,10.0,Calm,Calm,-,N/A,,Clear,0,2013-09-04 08:55:00
5:15 AM,73.4,71.6,94,30.00,10.0,Calm,Calm,-,N/A,,Clear,0,2013-09-04 09:15:00
5:35 AM,73.4,71.6,94,30.00,10.0,Calm,Calm,-,N/A,,Clear,0,2013-09-04 09:35:00
5:50 AM,75.2,73.4,94,30.00,12.0,North,3.5,-,N/A,,Partly Cloudy,10,2013-09-04 09:50:00
5:55 AM,73.4,71.6,94,30.00,10.0,North,3.5,-,N/A,,Clear,10,2013-09-04 09:55:00
6:15 AM,73.4,71.6,94,30.01,10.0,Calm,Calm,-,N/A,,Clear,0,2013-09-04 10:15:00
6:35 AM,73.4,71.6,94,30.02,10.0,Calm,Calm,-,N/A,,Clear,0,2013-09-04 10:35:00
6:50 AM,75.2,71.6,89,30.02,10.0,Calm,Calm,-,N/A,,Mostly Cloudy,0,2013-09-04 10:50:00
7:50 AM,75.2,73.4,94,30.04,12.0,Calm,Calm,-,N/A,,Mostly Cloudy,0,2013-09-04 11:50:00
8:50 AM,80.6,75.2,84,30.07,12.0,ENE,4.6,-,N/A,,Mostly Cloudy,70,2013-09-04 12:50:00
10:50 AM,84.2,73.4,70,30.09,15.0,East,4.6,-,N/A,,Mostly Cloudy,80,2013-09-04 14:50:00
11:50 AM,87.8,69.8,55,30.09,15.0,East,4.6,-,N/A,,Mostly Cloudy,80,2013-09-04 15:50:00
12:50 PM,87.8,71.6,58,30.08,15.0,ENE,5.8,-,N/A,,Mostly Cloudy,60,2013-09-04 16:50:00
1:50 PM,89.6,71.6,55,30.06,15.0,SE,4.6,-,N/A,,Mostly Cloudy,140,2013-09-04 17:50:00
2:50 PM,91.4,69.8,49,30.05,15.0,East,3.5,-,N/A,,Mostly Cloudy,80,2013-09-04 18:50:00
3:50 PM,91.4,71.6,52,30.04,15.0,East,8.1,-,N/A,,Mostly Cloudy,80,2013-09-04 19:50:00
4:50 PM,89.6,69.8,52,30.03,15.0,ESE,4.6,-,N/A,,Mostly Cloudy,120,2013-09-04 20:50:00
5:50 PM,87.8,69.8,55,30.04,7.0,SE,16.1,20.7,N/A,Rain-Thunderstorm,Light Thunderstorms and Rain,130,2013-09-04 21:50:00
6:04 PM,78.8,69.8,74,30.08,1.0,SE,25.3,36.8,N/A,Rain-Thunderstorm,Heavy Thunderstorms and Rain,130,2013-09-04 22:04:00
6:50 PM,71.6,68.0,88,30.06,7.0,WNW,10.4,-,N/A,,Overcast,300,2013-09-04 22:50:00
7:50 PM,71.6,69.8,94,30.08,10.0,Calm,Calm,-,N/A,,Overcast,0,2013-09-04 23:50:00
8:50 PM,71.6,69.8,94,30.10,10.0,WNW,5.8,-,N/A,Rain,Light Rain,300,2013-09-05 00:50:00
9:50 PM,73.4,71.6,94,30.10,10.0,Calm,Calm,-,N/A,,Overcast,0,2013-09-05 01:50:00
10:55 PM,71.6,69.8,94,30.09,10.0,East,4.6,-,N/A,,Scattered Clouds,90,2013-09-05 02:55:00
11:15 PM,71.6,69.8,94,30.09,10.0,East,5.8,-,N/A,,Clear,80,2013-09-05 03:15:00
11:35 PM,71.6,71.6,100,30.09,10.0,ENE,4.6,-,N/A,,Clear,70,2013-09-05 03:35:00
11:55 PM,71.6,69.8,94,30.10,10.0,NNW,3.5,-,N/A,,Clear,340,2013-09-05 03:55:00